Weather Roundup
Issued by NWS Chicago, IL

Home | Current Version | Previous Version | Text Only | Print | Product List | Glossary Off
Versions: 1 2 3 4 5 6 7 8 9 10 11 12 13 14 15 16 17 18 19 20 21 22 23 24 25 26 27 28 29 30 31 32 33 34 35 36 37 38 39 40 41 42 43 44 45 46 47 48 49 50

000
NZUS59 KLOT 192108
HRRLOT

CHICAGO AREA WEATHER ROUNDUP
NATIONAL WEATHER SERVICE CHICAGO/ROMEOVILLE IL
400 PM CDT SUN APR 19 2015

NOTE: "FAIR" INDICATES FEW OR NO CLOUDS BELOW 12,000 FEET WITH NO
SIGNIFICANT WEATHER AND/OR OBSTRUCTIONS TO VISIBILITY.

* THESE STATIONS ARE NOT UNDER NWS QUALITY CONTROL. THEY ALSO MAY NOT
  REPORT WEATHER SUCH AS PRECIPITATION OR FOG.

ILZ005-006-012>014-019>023-192200-
NORTHEAST ILLINOIS

CITY           SKY/WX    TMP DP  RH WIND       PRES   REMARKS
OHARE          LGT RAIN  59  39  47 E10       29.55F
MIDWAY         LGT RAIN  59  48  67 E8        29.54F
AURORA         LGT RAIN  63  49  60 SE10      29.53F
LANSING*       LGT RAIN  57  50  77 E9G16     29.56F
JOLIET*        RAIN      60  54  79 NE3       29.52F
WAUKEGAN       CLOUDY    54  35  48 NE9       29.57F
DUPAGE AIRPORT CLOUDY    64  41  42 NE13      29.53F
WHEELING       CLOUDY    54  35  48 NE8       29.58F
KANKAKEE*      LGT RAIN  54  52  94 E10G17    29.53F
MORRIS*        RAIN      60  53  78 CALM      29.51F
LEWIS AIRPORT* LGT RAIN  60  51  72 E8        29.53F
NORTHERLY IS     N/A     51  42  71 N6          N/A
$$

WIZ051-052-058>065-066-070>072-192200-
SOUTHEAST WISCONSIN

CITY           SKY/WX    TMP DP  RH WIND       PRES   REMARKS
MILWAUKEE      CLOUDY    50  33  52 NE9       29.61F
KENOSHA*       CLOUDY    58  35  42 NE12      29.59F
RACINE*        CLOUDY    48  34  58 N10       29.61F
BURLINGTON     CLOUDY    62  32  32 E14       29.57F
WEST BEND      MOSUNNY   63  30  29 E10       29.61F
$$

INZ001>003-010>013-019-020-192200-
NORTHWEST INDIANA

CITY           SKY/WX    TMP DP  RH WIND       PRES   REMARKS
GARY*          LGT RAIN  59  48  67 SE12      29.56F
MICHIGAN CITY* NOT AVBL
RENSSELAER*    NOT AVBL
VALPARAISO     RAIN      54  52  93 E15       29.55F FOG
$$

LMZ740>746-192200-
SOUTHERN LAKE MICHIGAN

STATION/POSITION TIME  SKY/WX   TEMP WIND        PRES    VSBY
                                AIR  DIR/SP/G
                 (UTC)          (F)  (DEG/KT/KT) (MB)    (MI)
HARRISON CRIB    2000            45  350/ 10/ 11   N/A
BURNHAM HARBOR   2100            51   10/  6/  9   N/A
CALUMET HARBOR   2000            50  340/  8/ 10   N/A
BURNS HARBOR     2000            61  110/ 12/ 21 1002.4F
MICHIGAN CITY    2000            61  100/ 11/ 15   N/A
$$

ABBREVIATIONS USED IN REMARKS
   TC - TEMPERATURE IN CELSIUS
  WCI - WIND CHILL INDEX
   HX - HEAT INDEX
  VSB - VISIBILITY
$$



USA.gov is the U.S. government's official web portal to all federal, state and local government web resources and services.